Погода в Верховажье

Россия / Вологодская область     60°44′34″N   42°02′41″E
темп.,
°C
ветер,
м/с
пор.,
м/с
влажн.,
%
обл.,
%
осадки,
мм/ч
давл.,
гПа
погр.,
м
7 августа, вс
вс700:00+19ю312720 0.0 1017274
03:00+18ю414710 0.0 1016338
06:00+19ю413690 0.0 1015379
09:00+24ююз49643 0.1 1015648
12:00+28ююз5104613 0.0 10142114
15:00+23зсз5773100 0.9 1014741
18:00+16зсз3684100 0.6 1017552
21:00+14з2589100 0.6 1019273
8 августа, пн
пн800:00+14з2685100 0.0 1019239
03:00+12з2692100 0.0 1020163
06:00+13зсз2480100 0.0 1022154
09:00+18сз2354100 0.0 1023844
12:00+21сз22403 0.0 10231676
15:00+22ссз223746 0.0 10221963
18:00+20с1352100 0.0 1022133
21:00+15ссв1263100 0.0 102311
9 августа, вт
вт900:00+12св2276100 0.0 102426
03:00+11св118075 0.0 102412
06:00+13всв127576 0.0 102587
09:00+19всв2352100 0.0 1024550
12:00+21всв3342100 0.0 10231859
15:00+21в3442100 0.0 10231830
18:00+20всв2452100 0.0 1022727
21:00+14св2371100 0.0 102263
10 августа, ср
ср1000:00+12св237742 0.0 102358
03:00+13ссв2771100 0.0 1022182
06:00+13ссв277199 0.0 1022231
09:00+15св2667100 0.0 1022304
12:00+19св245385 0.0 10211058
15:00+21св344093 0.0 10192181
18:00+19с245365 0.0 1020168
21:00+16с2364100 0.0 102069
11 августа, чт
чт1100:00+14с226726 0.0 102049
03:00+14ссз2468100 0.0 102097
06:00+14сз246898 0.0 102195
09:00+20сз23465 0.0 1020639
12:00+22зсз333438 0.0 10202446
15:00+20з3750100 0.0 1019762
18:00+21з4846100 0.0 1018874
21:00+17зюз3973100 0.0 1018454